Flag for U.S.A. Weather past 2 weeks in Cumberland, Maryland, U.S.A.

Now
41 °F

Light rain. Mostly cloudy.


Feels Like: 35 °F
Forecast: 17 / 36 °F
Wind: 9 mph from Northeast

Location: Eastern West Virginia Regional Airport

Current Time: Mar 4, 2015 at 11:59:00 PM

Latest Report: Mar 4, 2015 at 10:53 PM


Visibility: 7 mi

Pressure: 29.98 "Hg

Humidity: 86%

Dew point: 37 °F

Location of CumberlandLocation

Historic Weather in Cumberland — Graph

°F

Cumberland temperature yesterday

Maximum temperature yesterday: 39 °F (at 10:53 PM)
Minimum temperature yesterday: 24 °F (at 12:53 AM)
Average temperature yesterday: 32 °F

Past Weeks' High & Low Weather Summary

 TemperatureHumidityPressure
High52 °F (Mar 4, 12:53 PM)90% (Mar 4, 3:53 PM)30.86 "Hg (Mar 4, 3:53 PM)
Low1 °F (Feb 24, 6:53 AM)26% (Feb 28, 4:53 PM)29.69 "Hg (Feb 18, 2:53 PM)
Average26 °F57%30.20 "Hg
* Reported Feb 17 9:53 PM — Mar 4 9:53 PM, Cumberland, Weather by CustomWeather, © 2015

Note: Actual official high and low records may vary slightly from our data, if they occured in-between our weather recording intervals... More about our weather records

Advertising

Cumberland weather history for previous 24 hours

 ConditionsComfort  
Time TempWeatherWind HumidityBarometerVisibility
9:53 PM
Wed, Mar 4
41 °FLight rain. Mostly cloudy.8 mph89%29.97 "Hg9 mi
8:53 PM42 °FRain. Fog.6 mph89%29.94 "Hg6 mi
7:53 PM44 °FLight rain. Overcast.6 mph82%29.94 "Hg7 mi
6:53 PM46 °FLight rain. Fog.7 mph86%29.90 "Hg4 mi
6:02 PM47 °FLight rain. Fog.7 mph90%29.87 "Hg2 mi
5:53 PM47 °FLight rain. Fog.7 mph90%29.88 "Hg2 mi
5:46 PM47 °FLight rain. Fog.6 mph90%29.88 "Hg3 mi
5:04 PM48 °FRain. Fog.5 mph89%29.86 "Hg1 mi
3:53 PM49 °FLight rain. Fog.3 mph90%29.87 "Hg2 mi
2:53 PM51 °FLight rain. More clouds than sun.3 mph83%29.85 "Hg5 mi
1:53 PM52 °FMostly cloudy.No wind75%29.83 "Hg9 mi
12:53 PM52 °FOvercast.No wind75%29.84 "Hg8 mi
11:53 AM49 °FOvercast.No wind77%29.86 "Hg7 mi
10:53 AM47 °FMore clouds than sun.3 mph77%29.89 "Hg7 mi
9:53 AM43 °FMostly cloudy.No wind79%29.90 "Hg5 mi
8:53 AM39 °FFog.No wind86%29.92 "Hg3 mi
8:03 AM38 °FFog.No wind86%29.91 "Hg2 mi
7:53 AM38 °FFog.No wind86%29.90 "Hg3 mi
6:53 AM36 °FFog.5 mph89%29.87 "Hg2 mi
5:53 AM37 °FFog.3 mph89%29.85 "Hg3 mi
4:53 AM37 °FFog.3 mph89%29.84 "Hg3 mi
3:53 AM38 °FFog.3 mph86%29.82 "Hg4 mi
2:53 AM37 °FFog.5 mph86%29.81 "Hg4 mi
1:53 AM37 °FFog.5 mph86%29.81 "Hg5 mi
12:53 AM39 °FOvercast.No wind73%29.79 "Hg10 mi
11:53 PM
Tue, Mar 3
39 °FOvercast.5 mph70%29.81 "Hg10 mi
Weather by CustomWeather, © 2015

See weather overviewHow to use our weather pages